Location: Andershausen
(51.8462°N, 9.8595°E)
Time: 07:08:40
(UTC+00:00)

USA 281 - Pass Details

Date: 18 November 2025
Orbit: 1079 x 1080 km, 106.0° (Epoch: 08 December)

Event Time Altitude Azimuth Distance (km) Brightness Sun altitude
Exits shadow 18:11:31 53° 102° (ESE) 1,309 3.2 -25.2°
Maximum altitude 18:12:47 63° 55° (NE) 1,198 3.1 -25.4°
Drops below altitude 10° 18:19:16 10° 337° (NNW) 2,931 5.8 -26.4°
Sets 18:21:49 0° 334° (NNW) 3,891 6.5 -26.8°
